When you browse on this site, cookies collect data to enhance your experience and personalize the content and advertising you see.
Visit our Privacy Policy to learn more. By continuing to use the site, you agree to this use of cookies and data.
  • In Austria
  • List of Countries
  • For 7 days
  • Water Temperature
  • Satellite Maps
  • Weather Map
  • News
  • Weather Widgets
  • user-avatar
    Login

    Hourly Weather Rivne

    Today, 19 May, Sunday

    Time Temperature Precipitation Wind Pressure Humidity
    00:00 +18°C° 0 mm 2 mps 727 mmHg 75%
    01:00 +17°C° 0 mm 2 mps 727 mmHg 76%
    02:00 +13°C° 0 mm 1 mps 726 mmHg 94%
    03:00 +13°C° 0 mm 2 mps 726 mmHg 94%
    04:00 +12°C° 0 mm 3 mps 726 mmHg 92%
    05:00 +14°C° 0 mm 2 mps 726 mmHg 88%
    06:00 +14°C° 0 mm 2 mps 727 mmHg 86%
    07:00 +15°C° 0 mm 2 mps 727 mmHg 88%
    08:00 +17°C° 0 mm 3 mps 727 mmHg 86%
    09:00 +19°C° 0 mm 3 mps 727 mmHg 85%
    10:00 +20°C° 0 mm 2 mps 728 mmHg 85%
    11:00 +21°C° 0 mm 2 mps 728 mmHg 85%
    12:00 +21°C° 0 mm 2 mps 728 mmHg 83%
    13:00 +23°C° 0.5 mm 1 mps 727 mmHg 85%
    14:00 +23°C° 0.7 mm 1 mps 727 mmHg 84%
    15:00 +24°C° 0.2 mm 2 mps 727 mmHg 77%
    16:00 +24°C° 0 mm 2 mps 727 mmHg 76%
    17:00 +24°C° 0 mm 2 mps 727 mmHg 78%
    18:00 +24°C° 0 mm 3 mps 726 mmHg 80%
    19:00 +23°C° 0 mm 2 mps 726 mmHg 87%
    20:00 +21°C° 0 mm 2 mps 726 mmHg 86%
    21:00 +20°C° 0 mm 2 mps 726 mmHg 87%
    22:00 +19°C° 0 mm 3 mps 726 mmHg 86%
    23:00 +18°C° 0 mm 3 mps 726 mmHg 84%

    Tomorrow, 20 May, Monday

    Time Temperature Precipitation Wind Pressure Humidity
    00:00 +18°C° 0 mm 4 mps 725 mmHg 85%
    01:00 +18°C° 0 mm 4 mps 725 mmHg 88%
    02:00 +17°C° 0 mm 5 mps 725 mmHg 89%
    03:00 +18°C° 0 mm 4 mps 724 mmHg 85%
    04:00 +17°C° 0 mm 4 mps 724 mmHg 82%
    05:00 +16°C° 0 mm 5 mps 724 mmHg 83%
    06:00 +16°C° 0 mm 5 mps 725 mmHg 87%
    07:00 +17°C° 0 mm 5 mps 725 mmHg 89%
    08:00 +19°C° 0 mm 5 mps 726 mmHg 90%
    09:00 +21°C° 0 mm 4 mps 726 mmHg 87%
    10:00 +21°C° 0 mm 4 mps 727 mmHg 82%
    11:00 +21°C° 0 mm 4 mps 727 mmHg 82%
    12:00 +22°C° 0 mm 4 mps 727 mmHg 82%
    13:00 +21°C° 0 mm 4 mps 727 mmHg 83%
    14:00 +21°C° 0 mm 4 mps 727 mmHg 80%
    15:00 +21°C° 0 mm 4 mps 727 mmHg 82%
    16:00 +21°C° 0 mm 3 mps 727 mmHg 81%
    17:00 +20°C° 0 mm 2 mps 727 mmHg 81%
    18:00 +21°C° 0 mm 1 mps 727 mmHg 86%
    19:00 +21°C° 0 mm 1 mps 726 mmHg 89%
    20:00 +18°C° 0 mm 0 mps 726 mmHg 91%
    21:00 +20°C° 0 mm 1 mps 727 mmHg 88%
    22:00 +19°C° 0 mm 1 mps 727 mmHg 86%
    23:00 +19°C° 0 mm 1 mps 727 mmHg 85%

    Day after tomorrow, 21 May, Tuesday

    Time Temperature Precipitation Wind Pressure Humidity
    00:00 +19°C° 0 mm 1 mps 727 mmHg 83%
    01:00 +18°C° 0 mm 1 mps 726 mmHg 85%
    02:00 +16°C° 0 mm 1 mps 726 mmHg 97%
    03:00 +15°C° 3.5 mm 2 mps 726 mmHg 100%
    04:00 +15°C° 5.6 mm 2 mps 726 mmHg 99%
    05:00 +15°C° 2.7 mm 2 mps 726 mmHg 100%
    06:00 +14°C° 7.7 mm 2 mps 726 mmHg 100%
    07:00 +13°C° 7.7 mm 3 mps 726 mmHg 100%
    08:00 +12°C° 6.2 mm 3 mps 727 mmHg 100%
    09:00 +14°C° 5.6 mm 2 mps 727 mmHg 100%
    10:00 +13°C° 3.5 mm 3 mps 727 mmHg 99%
    11:00 +14°C° 0.1 mm 3 mps 727 mmHg 91%
    12:00 +16°C° 0.1 mm 2 mps 727 mmHg 90%
    13:00 +17°C° 0 mm 2 mps 727 mmHg 88%
    14:00 +19°C° 0 mm 1 mps 727 mmHg 83%
    15:00 +18°C° 0 mm 3 mps 727 mmHg 83%
    16:00 +18°C° 0 mm 4 mps 726 mmHg 82%
    17:00 +18°C° 0 mm 4 mps 726 mmHg 82%
    18:00 +18°C° 0 mm 3 mps 726 mmHg 85%
    19:00 +17°C° 0 mm 3 mps 727 mmHg 88%
    20:00 +16°C° 0 mm 3 mps 727 mmHg 96%
    21:00 +16°C° 0 mm 1 mps 727 mmHg 98%
    22:00 +15°C° 0 mm 1 mps 727 mmHg 97%
    23:00 +15°C° 0 mm 1 mps 728 mmHg 95%

    22 May, Wednesday

    Time Temperature Precipitation Wind Pressure Humidity
    00:00 +14°C° 0 mm 2 mps 728 mmHg 97%
    01:00 +13°C° 0 mm 2 mps 727 mmHg 98%
    02:00 +13°C° 0 mm 2 mps 727 mmHg 98%
    03:00 +12°C° 0 mm 3 mps 727 mmHg 99%
    04:00 +12°C° 0 mm 3 mps 727 mmHg 98%
    05:00 +11°C° 0 mm 3 mps 727 mmHg 99%
    06:00 +12°C° 0 mm 3 mps 727 mmHg 99%
    07:00 +12°C° 0 mm 3 mps 727 mmHg 98%
    08:00 +13°C° 0 mm 3 mps 727 mmHg 97%
    09:00 +14°C° 0 mm 3 mps 727 mmHg 96%
    10:00 +17°C° 0 mm 3 mps 728 mmHg 93%
    11:00 +18°C° 0 mm 2 mps 727 mmHg 87%
    12:00 +19°C° 1.1 mm 2 mps 727 mmHg 85%
    13:00 +19°C° 0.1 mm 3 mps 726 mmHg 86%
    14:00 +19°C° 0.5 mm 3 mps 726 mmHg 89%
    15:00 +19°C° 1.8 mm 4 mps 726 mmHg 89%
    16:00 +19°C° 0 mm 4 mps 726 mmHg 89%
    17:00 +17°C° 1.7 mm 5 mps 725 mmHg 95%
    18:00 +18°C° 0.7 mm 3 mps 725 mmHg 96%
    19:00 +17°C° 0.3 mm 4 mps 726 mmHg 97%
    20:00 +16°C° 0.5 mm 1 mps 726 mmHg 100%
    21:00 +16°C° 0.3 mm 3 mps 726 mmHg 100%
    22:00 +16°C° 0 mm 3 mps 726 mmHg 100%
    23:00 +15°C° 0.1 mm 4 mps 726 mmHg 100%

    23 May, Thursday

    Time Temperature Precipitation Wind Pressure Humidity
    00:00 +16°C° 0 mm 3 mps 726 mmHg 100%
    01:00 +16°C° 0 mm 2 mps 726 mmHg 100%
    02:00 +14°C° 0 mm 3 mps 726 mmHg 100%

    24 May, Friday

    Time Temperature Precipitation Wind Pressure Humidity
    Show more